WXM80 ListenWXM80 Stop

You find our weather info also at:

UK Metoffice

WeatherCloud

Weather Underground

Northeastern Weather Network

AWEKAS

Citizen Weather Observer Program (CWOP)

HAMweather, WeatherForYou, PWS Weather


Weather Underground History page Text

Daily Summary for September 14, 2017 Units:  English    Metric   Both
« Previous Day
Next Day »
Daily Weekly Monthly Yearly Custom
  High: Low: Average:
Temperature: 86.2 °F 68.4 °F 74.5 °F
Dew Point: 74.8 °F 66.1 °F 69.4 °F
Humidity: 97 % 57 % 85 %
Wind Speed: 4.5 mph 0.0 mph 0.5 mph
Wind Gust: 12.0 mph - -
Wind:- - SSW
Pressure: 29.88 in 29.79 in -
Precipitation: 0.00 in    
Historical Graphs
 
 
Tabular Data for September 14, 2017
Time Temperature Dew Point Pressure Wind Wind Speed Wind Gust Humidity Rainfall Rate (Hourly)
00:01 72.0 °F 68.2 °F 29.82 in South 0.1 mph 1.0 mph 88 % 0.00 in
00:06 72.0 °F 68.2 °F 29.82 in Calm     88 % 0.00 in
00:11 72.0 °F 68.2 °F 29.82 in Calm   2.3 mph 88 % 0.00 in
00:16 71.9 °F 68.2 °F 29.82 in South 0.2 mph 1.2 mph 88 % 0.00 in
00:21 71.9 °F 68.2 °F 29.82 in SSW 0.1 mph 1.0 mph 88 % 0.00 in
00:26 71.8 °F 68.1 °F 29.81 in SSW 0.1 mph   88 % 0.00 in
00:31 71.8 °F 68.1 °F 29.81 in Calm     88 % 0.00 in
00:36 71.7 °F 68.0 °F 29.82 in Calm     88 % 0.00 in
00:41 71.6 °F 67.9 °F 29.81 in Calm   1.2 mph 88 % 0.00 in
00:46 71.6 °F 68.2 °F 29.81 in SSW 0.2 mph 1.2 mph 89 % 0.00 in
00:51 71.5 °F 68.1 °F 29.81 in Calm   1.2 mph 89 % 0.00 in
00:57 71.4 °F 68.0 °F 29.81 in SSW 0.3 mph 3.5 mph 89 % 0.00 in
01:02 71.3 °F 67.9 °F 29.81 in SSW 0.2 mph 1.2 mph 89 % 0.00 in
01:07 71.2 °F 67.8 °F 29.81 in SSW 0.1 mph 1.2 mph 89 % 0.00 in
01:12 71.1 °F 68.0 °F 29.81 in Calm   1.2 mph 90 % 0.00 in
01:17 71.0 °F 67.9 °F 29.81 in SSW 0.1 mph 1.2 mph 90 % 0.00 in
01:22 70.9 °F 67.5 °F 29.81 in Calm     89 % 0.00 in
01:27 70.8 °F 67.4 °F 29.80 in Calm     89 % 0.00 in
01:32 70.7 °F 67.6 °F 29.80 in SW 0.1 mph 1.2 mph 90 % 0.00 in
01:37 70.6 °F 67.5 °F 29.81 in Calm   1.2 mph 90 % 0.00 in
01:42 70.4 °F 67.3 °F 29.80 in Calm     90 % 0.00 in
01:47 70.3 °F 67.2 °F 29.81 in WSW 0.4 mph 2.3 mph 90 % 0.00 in
01:52 70.2 °F 67.1 °F 29.81 in Calm     90 % 0.00 in
01:57 70.1 °F 67.0 °F 29.81 in WSW 0.1 mph 1.2 mph 90 % 0.00 in
02:02 70.0 °F 66.9 °F 29.81 in WSW 0.2 mph 1.2 mph 90 % 0.00 in
02:07 69.9 °F 66.8 °F 29.81 in Calm     90 % 0.00 in
02:13 69.8 °F 67.1 °F 29.81 in Calm   1.2 mph 91 % 0.00 in
02:18 69.7 °F 67.0 °F 29.81 in Calm     91 % 0.00 in
02:23 69.6 °F 66.5 °F 29.81 in Calm     90 % 0.00 in
02:28 69.5 °F 66.4 °F 29.81 in Calm     90 % 0.00 in
02:33 69.4 °F 66.7 °F 29.81 in Calm     91 % 0.00 in
02:38 69.3 °F 66.6 °F 29.81 in Calm     91 % 0.00 in
02:43 69.2 °F 66.5 °F 29.81 in Calm     91 % 0.00 in
02:48 69.1 °F 66.4 °F 29.80 in Calm     91 % 0.00 in
02:53 69.0 °F 66.3 °F 29.80 in Calm     91 % 0.00 in
02:58 69.0 °F 66.3 °F 29.80 in Calm     91 % 0.00 in
03:03 68.9 °F 66.2 °F 29.80 in Calm     91 % 0.00 in
03:08 68.9 °F 66.5 °F 29.80 in Calm     92 % 0.00 in
03:13 68.8 °F 66.4 °F 29.80 in Calm     92 % 0.00 in
03:19 68.7 °F 66.3 °F 29.80 in Calm     92 % 0.00 in
03:24 68.6 °F 66.2 °F 29.80 in Calm     92 % 0.00 in
03:29 68.5 °F 66.1 °F 29.80 in Calm     92 % 0.00 in
03:34 68.5 °F 66.1 °F 29.80 in Calm     92 % 0.00 in
03:39 68.5 °F 66.1 °F 29.80 in Calm   1.2 mph 92 % 0.00 in
03:44 68.5 °F 66.4 °F 29.80 in Calm   1.2 mph 93 % 0.00 in
03:49 68.5 °F 66.4 °F 29.80 in Calm     93 % 0.00 in
03:54 68.5 °F 66.4 °F 29.80 in Calm     93 % 0.00 in
03:59 68.4 °F 66.3 °F 29.80 in Calm     93 % 0.00 in
04:04 68.4 °F 66.6 °F 29.81 in Calm     94 % 0.00 in
04:09 68.4 °F 66.6 °F 29.80 in Calm   1.2 mph 94 % 0.00 in
04:14 68.5 °F 66.7 °F 29.80 in Calm   1.2 mph 94 % 0.00 in
04:20 68.5 °F 66.7 °F 29.80 in Calm     94 % 0.00 in
04:25 68.5 °F 66.7 °F 29.80 in Calm     94 % 0.00 in
04:30 68.6 °F 67.1 °F 29.81 in SW 0.1 mph 2.3 mph 95 % 0.00 in
04:35 68.6 °F 67.1 °F 29.80 in Calm   2.3 mph 95 % 0.00 in
04:40 68.6 °F 67.1 °F 29.81 in Calm     95 % 0.00 in
04:45 68.7 °F 67.2 °F 29.81 in SW 0.4 mph 1.2 mph 95 % 0.00 in
04:50 68.7 °F 67.2 °F 29.81 in Calm     95 % 0.00 in
04:55 68.8 °F 67.3 °F 29.80 in Calm     95 % 0.00 in
05:00 68.9 °F 67.7 °F 29.81 in Calm     96 % 0.00 in
05:05 69.0 °F 67.8 °F 29.81 in Calm     96 % 0.00 in
05:10 69.1 °F 67.9 °F 29.81 in Calm     96 % 0.00 in
05:15 69.2 °F 68.0 °F 29.81 in SW 0.1 mph 1.2 mph 96 % 0.00 in
05:20 69.2 °F 68.0 °F 29.81 in Calm   1.2 mph 96 % 0.00 in
05:26 69.2 °F 68.0 °F 29.81 in Calm   1.0 mph 96 % 0.00 in
05:31 69.2 °F 68.0 °F 29.81 in SW 0.1 mph   96 % 0.00 in
05:36 69.3 °F 68.1 °F 29.82 in Calm     96 % 0.00 in
05:41 69.3 °F 68.1 °F 29.82 in Calm     96 % 0.00 in
05:46 69.3 °F 68.1 °F 29.82 in Calm     96 % 0.00 in
05:51 69.3 °F 68.1 °F 29.82 in Calm     96 % 0.00 in
05:56 69.4 °F 68.2 °F 29.82 in Calm   1.0 mph 96 % 0.00 in
06:01 69.4 °F 68.2 °F 29.82 in Calm     96 % 0.00 in
06:06 69.4 °F 68.2 °F 29.82 in Calm     96 % 0.00 in
06:11 69.5 °F 68.3 °F 29.82 in Calm     96 % 0.00 in
06:16 69.5 °F 68.3 °F 29.82 in Calm     96 % 0.00 in
06:21 69.5 °F 68.3 °F 29.82 in Calm     96 % 0.00 in
06:26 69.5 °F 68.3 °F 29.82 in Calm     96 % 0.00 in
06:31 69.5 °F 68.3 °F 29.82 in Calm     96 % 0.00 in
06:36 69.5 °F 68.3 °F 29.82 in Calm     96 % 0.00 in
06:41 69.6 °F 68.4 °F 29.82 in Calm     96 % 0.00 in
06:46 69.6 °F 68.4 °F 29.82 in Calm     96 % 0.00 in
06:51 69.7 °F 68.5 °F 29.83 in Calm     96 % 0.00 in
06:56 69.7 °F 68.5 °F 29.82 in Calm     96 % 0.00 in
07:02 69.7 °F 68.5 °F 29.82 in Calm     96 % 0.00 in
07:07 69.7 °F 68.5 °F 29.82 in Calm     96 % 0.00 in
07:12 69.7 °F 68.5 °F 29.82 in Calm     96 % 0.00 in
07:17 69.8 °F 68.6 °F 29.83 in Calm     96 % 0.00 in
07:22 69.8 °F 68.6 °F 29.83 in Calm     96 % 0.00 in
07:27 69.8 °F 68.6 °F 29.83 in Calm     96 % 0.00 in
07:32 69.8 °F 68.6 °F 29.83 in Calm     96 % 0.00 in
07:37 69.8 °F 68.6 °F 29.83 in Calm     96 % 0.00 in
07:42 69.8 °F 68.6 °F 29.83 in Calm   1.0 mph 96 % 0.00 in
07:47 69.8 °F 68.6 °F 29.83 in Calm     96 % 0.00 in
07:52 69.9 °F 68.7 °F 29.83 in Calm     96 % 0.00 in
07:58 70.0 °F 68.8 °F 29.83 in SW 0.2 mph 2.0 mph 96 % 0.00 in
08:03 70.1 °F 68.9 °F 29.83 in Calm   1.2 mph 96 % 0.00 in
08:08 70.3 °F 69.1 °F 29.83 in SW 0.7 mph 2.3 mph 96 % 0.00 in
08:13 70.4 °F 69.5 °F 29.83 in SW 1.2 mph 2.3 mph 97 % 0.00 in
08:18 70.5 °F 69.6 °F 29.83 in Calm     97 % 0.00 in
08:23 70.6 °F 69.7 °F 29.84 in SW 1.3 mph 3.5 mph 97 % 0.00 in
08:28 70.8 °F 69.9 °F 29.84 in SSE 1.0 mph 3.5 mph 97 % 0.00 in
08:33 70.9 °F 70.0 °F 29.84 in SW 3.0 mph 4.6 mph 97 % 0.00 in
08:38 71.0 °F 70.1 °F 29.84 in Calm     97 % 0.00 in
08:43 71.1 °F 70.2 °F 29.84 in SW 0.7 mph 3.0 mph 97 % 0.00 in
08:48 71.2 °F 70.3 °F 29.84 in Calm   1.2 mph 97 % 0.00 in
08:53 71.3 °F 70.1 °F 29.83 in South 0.9 mph 3.5 mph 96 % 0.00 in
08:59 71.5 °F 70.3 °F 29.83 in West 0.7 mph 1.2 mph 96 % 0.00 in
09:04 71.7 °F 70.5 °F 29.84 in SW 2.6 mph 4.6 mph 96 % 0.00 in
09:09 71.9 °F 70.7 °F 29.84 in SW 2.9 mph 5.8 mph 96 % 0.00 in
09:14 72.1 °F 70.6 °F 29.84 in West 1.4 mph 3.5 mph 95 % 0.00 in
09:19 72.3 °F 70.8 °F 29.84 in Calm     95 % 0.00 in
09:24 72.5 °F 70.7 °F 29.84 in West 0.1 mph 1.2 mph 94 % 0.00 in
09:29 72.7 °F 70.9 °F 29.84 in Calm     94 % 0.00 in
09:34 72.8 °F 71.0 °F 29.85 in Calm     94 % 0.00 in
09:39 73.0 °F 70.9 °F 29.84 in Calm     93 % 0.00 in
09:44 73.1 °F 71.0 °F 29.84 in Calm     93 % 0.00 in
09:49 73.2 °F 70.7 °F 29.84 in Calm     92 % 0.00 in
09:54 73.3 °F 70.8 °F 29.85 in Calm     92 % 0.00 in
09:59 73.3 °F 70.8 °F 29.84 in Calm   1.2 mph 92 % 0.00 in
10:04 73.4 °F 70.9 °F 29.84 in West 0.3 mph 2.3 mph 92 % 0.00 in
10:09 73.5 °F 70.7 °F 29.85 in Calm     91 % 0.00 in
10:14 73.7 °F 70.6 °F 29.85 in ESE 2.2 mph 3.5 mph 90 % 0.00 in
10:20 73.8 °F 70.4 °F 29.85 in ESE 0.7 mph 2.3 mph 89 % 0.00 in
10:25 74.0 °F 70.6 °F 29.84 in Calm     89 % 0.00 in
10:30 74.3 °F 70.8 °F 29.84 in Calm     89 % 0.00 in
10:35 74.7 °F 71.6 °F 29.85 in Calm   1.2 mph 90 % 0.00 in
10:40 75.0 °F 71.5 °F 29.85 in SE 0.4 mph 2.0 mph 89 % 0.00 in
10:45 75.4 °F 70.9 °F 29.84 in WSW 1.4 mph 4.0 mph 86 % 0.00 in
10:55 76.0 °F 71.2 °F 29.85 in SW 0.3 mph 1.2 mph 85 % 0.00 in
11:00 76.3 °F 71.1 °F 29.84 in Calm     84 % 0.00 in
11:05 76.6 °F 71.4 °F 29.84 in SW 1.9 mph 3.5 mph 84 % 0.00 in
11:10 76.8 °F 71.2 °F 29.84 in West 0.6 mph 2.0 mph 83 % 0.00 in
11:15 77.1 °F 71.5 °F 29.84 in SE 1.4 mph 4.0 mph 83 % 0.00 in
11:20 77.4 °F 71.1 °F 29.84 in SE 1.1 mph 2.0 mph 81 % 0.00 in
11:25 77.7 °F 71.8 °F 29.84 in SE 2.6 mph 3.5 mph 82 % 0.00 in
11:31 78.1 °F 71.4 °F 29.84 in Calm   2.0 mph 80 % 0.00 in
11:36 78.4 °F 71.3 °F 29.84 in SSE 2.0 mph 5.0 mph 79 % 0.00 in
11:41 78.8 °F 72.1 °F 29.84 in SSW 1.0 mph 4.0 mph 80 % 0.00 in
11:46 79.2 °F 72.1 °F 29.84 in SW 1.0 mph 4.0 mph 79 % 0.00 in
11:51 79.6 °F 72.1 °F 29.84 in SW 1.0 mph 5.0 mph 78 % 0.00 in
11:56 79.9 °F 71.3 °F 29.84 in SSW 2.0 mph 5.0 mph 75 % 0.00 in
12:01 80.2 °F 72.3 °F 29.84 in West 2.3 mph 3.5 mph 77 % 0.00 in
12:06 80.4 °F 72.1 °F 29.84 in WSW 1.0 mph 5.0 mph 76 % 0.00 in
12:11 80.5 °F 72.2 °F 29.83 in SW 1.2 mph 2.3 mph 76 % 0.00 in
12:16 80.6 °F 71.9 °F 29.84 in Calm   5.0 mph 75 % 0.00 in
12:21 80.7 °F 72.8 °F 29.84 in SSE 0.1 mph 1.0 mph 77 % 0.00 in
12:26 80.8 °F 71.3 °F 29.83 in SSE 1.0 mph 4.0 mph 73 % 0.00 in
12:31 81.0 °F 71.9 °F 29.83 in SE 3.4 mph 5.8 mph 74 % 0.00 in
12:36 81.2 °F 72.2 °F 29.83 in SSE 2.0 mph 5.0 mph 74 % 0.00 in
12:41 81.5 °F 72.4 °F 29.83 in WSW 1.0 mph 5.0 mph 74 % 0.00 in
12:46 81.6 °F 72.1 °F 29.83 in Calm   4.0 mph 73 % 0.00 in
12:51 81.6 °F 72.1 °F 29.83 in SSE 1.0 mph 4.0 mph 73 % 0.00 in
12:56 81.6 °F 72.5 °F 29.83 in SW 1.0 mph 5.0 mph 74 % 0.00 in
13:01 81.6 °F 71.7 °F 29.83 in SW 1.2 mph 3.5 mph 72 % 0.00 in
13:06 81.6 °F 72.1 °F 29.83 in South 1.0 mph 4.0 mph 73 % 0.00 in
13:11 81.8 °F 72.3 °F 29.82 in SW 1.4 mph 3.5 mph 73 % 0.00 in
13:16 82.0 °F 72.1 °F 29.82 in Calm   1.0 mph 72 % 0.00 in
13:21 82.3 °F 71.5 °F 29.82 in Calm   3.0 mph 70 % 0.00 in
13:26 82.9 °F 71.7 °F 29.82 in SSE 0.3 mph 3.5 mph 69 % 0.00 in
13:31 83.7 °F 72.0 °F 29.82 in SW 2.6 mph 4.6 mph 68 % 0.00 in
13:36 84.0 °F 71.0 °F 29.81 in SW 2.0 mph 5.0 mph 65 % 0.00 in
13:41 84.3 °F 71.3 °F 29.81 in WSW 1.0 mph 5.0 mph 65 % 0.00 in
13:46 84.8 °F 70.3 °F 29.81 in SW 2.0 mph 5.0 mph 62 % 0.00 in
13:51 85.3 °F 71.7 °F 29.81 in WNW 4.5 mph 6.9 mph 64 % 0.00 in
13:56 85.7 °F 74.3 °F 29.81 in North 1.0 mph 6.0 mph 69 % 0.00 in
14:01 85.7 °F 74.8 °F 29.81 in NNW 1.0 mph 2.0 mph 70 % 0.00 in
14:06 85.8 °F 71.3 °F 29.80 in WNW 1.0 mph 5.0 mph 62 % 0.00 in
14:11 86.1 °F 74.3 °F 29.81 in SE 0.6 mph 2.0 mph 68 % 0.00 in
14:16 86.1 °F 73.4 °F 29.80 in ENE 1.3 mph 2.3 mph 66 % 0.00 in
14:21 86.2 °F 73.0 °F 29.80 in Calm   6.0 mph 65 % 0.00 in
14:26 86.1 °F 69.1 °F 29.80 in SSE 2.0 mph 12.0 mph 57 % 0.00 in
14:31 85.9 °F 70.4 °F 29.80 in South 0.5 mph 3.5 mph 60 % 0.00 in
14:36 86.1 °F 72.0 °F 29.80 in Calm   8.0 mph 63 % 0.00 in
14:41 86.1 °F 70.1 °F 29.80 in Calm   7.0 mph 59 % 0.00 in
14:46 86.0 °F 69.0 °F 29.80 in South 2.0 mph 9.0 mph 57 % 0.00 in
14:51 85.8 °F 69.8 °F 29.80 in SSW 1.3 mph 3.5 mph 59 % 0.00 in
14:56 85.6 °F 68.6 °F 29.80 in SE 2.5 mph 7.0 mph 57 % 0.00 in
15:01 84.9 °F 68.0 °F 29.80 in SSW 2.0 mph 7.0 mph 57 % 0.00 in
15:06 84.3 °F 67.9 °F 29.80 in South 2.6 mph 4.6 mph 58 % 0.00 in
15:11 83.7 °F 68.3 °F 29.80 in SSE 2.9 mph 8.1 mph 60 % 0.00 in
15:16 83.1 °F 69.2 °F 29.80 in SSE 0.5 mph 5.8 mph 63 % 0.00 in
15:22 82.8 °F 69.8 °F 29.81 in SE 2.1 mph 3.5 mph 65 % 0.00 in
15:27 82.3 °F 69.4 °F 29.80 in South 1.4 mph 3.5 mph 65 % 0.00 in
15:32 81.5 °F 69.0 °F 29.80 in Calm   3.5 mph 66 % 0.00 in
15:37 81.2 °F 69.6 °F 29.80 in Calm   3.5 mph 68 % 0.00 in
15:42 80.9 °F 69.3 °F 29.80 in Calm   1.2 mph 68 % 0.00 in
15:52 80.6 °F 69.5 °F 29.80 in SW 1.5 mph 3.5 mph 69 % 0.00 in
15:57 80.3 °F 69.2 °F 29.80 in SSW 2.1 mph 4.0 mph 69 % 0.00 in
16:02 80.1 °F 69.0 °F 29.80 in West 0.6 mph 4.6 mph 69 % 0.00 in
16:07 80.1 °F 69.4 °F 29.80 in SSE 2.3 mph 5.0 mph 70 % 0.00 in
16:12 80.1 °F 69.0 °F 29.80 in SW 0.2 mph 2.3 mph 69 % 0.00 in
16:17 80.1 °F 69.0 °F 29.80 in SE 0.2 mph 2.3 mph 69 % 0.00 in
16:23 80.1 °F 69.0 °F 29.79 in SE 1.9 mph 5.8 mph 69 % 0.00 in
16:28 79.9 °F 69.2 °F 29.80 in SSE 1.0 mph 6.9 mph 70 % 0.00 in
16:33 79.8 °F 69.6 °F 29.80 in SSE 0.4 mph 5.8 mph 71 % 0.00 in
16:38 79.8 °F 70.0 °F 29.80 in SSE 3.2 mph 10.4 mph 72 % 0.00 in
16:43 79.8 °F 70.4 °F 29.80 in WSW 1.0 mph 3.5 mph 73 % 0.00 in
16:48 79.7 °F 70.3 °F 29.80 in SE 0.7 mph 3.5 mph 73 % 0.00 in
16:53 79.5 °F 70.5 °F 29.80 in SSE 0.1 mph 1.2 mph 74 % 0.00 in
16:58 79.4 °F 70.8 °F 29.80 in South 1.6 mph 5.0 mph 75 % 0.00 in
17:03 79.2 °F 70.6 °F 29.79 in SE 0.9 mph 2.3 mph 75 % 0.00 in
17:08 79.1 °F 70.5 °F 29.79 in SE 0.9 mph 3.5 mph 75 % 0.00 in
17:13 78.9 °F 70.7 °F 29.79 in SSW 2.4 mph 6.9 mph 76 % 0.00 in
17:18 78.6 °F 70.4 °F 29.80 in SSW 1.0 mph 3.5 mph 76 % 0.00 in
17:23 78.4 °F 70.6 °F 29.80 in SE 0.7 mph 2.3 mph 77 % 0.00 in
17:28 78.2 °F 70.8 °F 29.80 in Calm   3.5 mph 78 % 0.00 in
17:34 78.0 °F 70.6 °F 29.80 in SSW 1.6 mph 2.3 mph 78 % 0.00 in
17:39 77.7 °F 70.3 °F 29.80 in Calm   2.3 mph 78 % 0.00 in
17:44 77.6 °F 70.2 °F 29.80 in SSE 1.0 mph 3.5 mph 78 % 0.00 in
17:49 77.4 °F 70.0 °F 29.80 in South 0.8 mph 3.5 mph 78 % 0.00 in
17:54 77.2 °F 69.8 °F 29.80 in Calm   1.2 mph 78 % 0.00 in
17:59 77.1 °F 70.1 °F 29.80 in SSE 0.5 mph 3.5 mph 79 % 0.00 in
18:04 76.9 °F 69.9 °F 29.80 in SSE 0.4 mph 3.5 mph 79 % 0.00 in
18:09 76.7 °F 70.1 °F 29.81 in South 0.3 mph 2.3 mph 80 % 0.00 in
18:14 76.6 °F 70.0 °F 29.81 in SE 0.3 mph 3.5 mph 80 % 0.00 in
18:19 76.5 °F 70.2 °F 29.80 in SE 0.2 mph 1.2 mph 81 % 0.00 in
18:24 76.4 °F 70.1 °F 29.81 in Calm   1.2 mph 81 % 0.00 in
18:29 76.2 °F 70.3 °F 29.81 in SSW 0.5 mph 1.2 mph 82 % 0.00 in
18:35 76.1 °F 70.2 °F 29.81 in SSW 0.8 mph 2.3 mph 82 % 0.00 in
18:40 76.0 °F 70.1 °F 29.82 in SE 0.6 mph 3.5 mph 82 % 0.00 in
18:45 75.9 °F 70.0 °F 29.82 in Calm   3.5 mph 82 % 0.00 in
18:50 75.7 °F 70.2 °F 29.82 in SSE 0.1 mph 1.2 mph 83 % 0.00 in
18:55 75.6 °F 70.1 °F 29.82 in SSE 0.2 mph 2.3 mph 83 % 0.00 in
19:00 75.5 °F 70.0 °F 29.82 in SW 1.0 mph 5.0 mph 83 % 0.00 in
19:05 75.4 °F 70.2 °F 29.82 in SSW 0.7 mph 2.3 mph 84 % 0.00 in
19:10 75.3 °F 70.1 °F 29.82 in South 0.5 mph 2.3 mph 84 % 0.00 in
19:15 75.2 °F 70.0 °F 29.82 in Calm     84 % 0.00 in
19:25 75.0 °F 69.8 °F 29.82 in WSW 0.2 mph 1.2 mph 84 % 0.00 in
19:30 74.9 °F 69.7 °F 29.82 in Calm   1.2 mph 84 % 0.00 in
19:35 74.9 °F 69.7 °F 29.83 in Calm   1.2 mph 84 % 0.00 in
19:40 74.7 °F 69.2 °F 29.83 in SSW 0.4 mph 2.3 mph 83 % 0.00 in
19:46 74.6 °F 69.1 °F 29.83 in Calm   2.0 mph 83 % 0.00 in
19:51 74.6 °F 69.1 °F 29.84 in Calm   1.0 mph 83 % 0.00 in
19:56 74.5 °F 69.3 °F 29.84 in Calm   1.0 mph 84 % 0.00 in
20:01 74.5 °F 69.3 °F 29.84 in Calm   1.2 mph 84 % 0.00 in
20:06 74.4 °F 69.6 °F 29.84 in SW 0.1 mph 2.3 mph 85 % 0.00 in
20:11 74.3 °F 69.5 °F 29.85 in South 0.5 mph 2.3 mph 85 % 0.00 in
20:16 74.3 °F 69.8 °F 29.85 in SSW 0.4 mph 2.3 mph 86 % 0.00 in
20:21 74.2 °F 69.7 °F 29.85 in Calm     86 % 0.00 in
20:26 74.2 °F 70.1 °F 29.85 in SW 0.2 mph   87 % 0.00 in
20:31 74.1 °F 70.0 °F 29.85 in West 0.3 mph 2.0 mph 87 % 0.00 in
20:36 74.1 °F 70.0 °F 29.86 in Calm     87 % 0.00 in
20:41 74.0 °F 69.9 °F 29.86 in Calm     87 % 0.00 in
20:46 74.0 °F 69.9 °F 29.85 in Calm   1.2 mph 87 % 0.00 in
20:51 73.9 °F 69.8 °F 29.86 in SSW 0.1 mph 1.2 mph 87 % 0.00 in
20:57 73.9 °F 69.8 °F 29.85 in Calm   2.3 mph 87 % 0.00 in
21:02 73.8 °F 70.0 °F 29.85 in Calm     88 % 0.00 in
21:07 73.7 °F 69.9 °F 29.85 in SE 0.1 mph 2.3 mph 88 % 0.00 in
21:12 73.7 °F 69.9 °F 29.85 in SW 0.2 mph 1.2 mph 88 % 0.00 in
21:17 73.6 °F 69.8 °F 29.85 in SE 0.1 mph 1.2 mph 88 % 0.00 in
21:22 73.6 °F 69.8 °F 29.85 in SE 0.1 mph 1.2 mph 88 % 0.00 in
21:27 73.5 °F 69.7 °F 29.85 in SSE 0.2 mph 1.2 mph 88 % 0.00 in
21:32 73.4 °F 69.6 °F 29.86 in SE 0.1 mph 1.2 mph 88 % 0.00 in
21:37 73.4 °F 69.6 °F 29.85 in SE 0.1 mph 1.2 mph 88 % 0.00 in
21:42 73.3 °F 69.5 °F 29.86 in SSE 0.3 mph 1.2 mph 88 % 0.00 in
21:47 73.3 °F 69.9 °F 29.86 in SSE 0.1 mph 1.2 mph 89 % 0.00 in
21:52 73.2 °F 69.8 °F 29.86 in SSE 0.2 mph 1.2 mph 89 % 0.00 in
21:57 73.2 °F 69.8 °F 29.86 in SSE 0.4 mph 1.2 mph 89 % 0.00 in
22:03 73.2 °F 69.8 °F 29.86 in Calm   1.0 mph 89 % 0.00 in
22:08 73.1 °F 69.7 °F 29.86 in South 0.5 mph 1.2 mph 89 % 0.00 in
22:13 73.1 °F 69.7 °F 29.86 in Calm   1.2 mph 89 % 0.00 in
22:18 73.1 °F 69.7 °F 29.86 in SSE 0.2 mph 1.2 mph 89 % 0.00 in
22:23 73.1 °F 69.7 °F 29.86 in SSE 0.1 mph 1.2 mph 89 % 0.00 in
22:28 73.0 °F 69.6 °F 29.87 in Calm   1.2 mph 89 % 0.00 in
22:33 73.0 °F 69.6 °F 29.86 in WSW 0.1 mph 1.2 mph 89 % 0.00 in
22:38 73.0 °F 69.6 °F 29.87 in Calm   1.2 mph 89 % 0.00 in
22:43 73.0 °F 69.6 °F 29.87 in WSW 0.2 mph 1.0 mph 89 % 0.00 in
22:48 73.0 °F 69.6 °F 29.87 in Calm   1.2 mph 89 % 0.00 in
22:53 73.0 °F 69.6 °F 29.87 in WSW 0.1 mph 1.2 mph 89 % 0.00 in
22:58 72.9 °F 69.5 °F 29.87 in Calm   1.2 mph 89 % 0.00 in
23:04 72.9 °F 69.5 °F 29.87 in Calm   1.2 mph 89 % 0.00 in
23:09 72.9 °F 69.5 °F 29.87 in SW 0.5 mph 2.3 mph 89 % 0.00 in
23:15 72.9 °F 69.5 °F 29.87 in SW 0.2 mph 2.3 mph 89 % 0.00 in
23:20 72.8 °F 69.4 °F 29.88 in SW 0.4 mph 2.3 mph 89 % 0.00 in
23:22 72.8 °F 69.4 °F 29.87 in Calm   2.3 mph 89 % 0.00 in
23:23 72.8 °F 69.4 °F 29.87 in SW 0.5 mph 3.0 mph 89 % 0.00 in
23:27 72.8 °F 69.4 °F 29.87 in SSW 0.3 mph 1.2 mph 89 % 0.00 in
23:31 72.7 °F 69.3 °F 29.87 in SSW 0.4 mph 1.2 mph 89 % 0.00 in
23:36 72.7 °F 69.3 °F 29.87 in SSW 0.5 mph   89 % 0.00 in
23:41 72.6 °F 69.2 °F 29.88 in Calm   1.2 mph 89 % 0.00 in
23:47 72.6 °F 69.2 °F 29.88 in SSW 0.5 mph 2.3 mph 89 % 0.00 in
23:52 72.5 °F 68.7 °F 29.88 in WSW 0.4 mph 2.3 mph 88 % 0.00 in
23:57 72.4 °F 69.0 °F 29.88 in WSW 0.3 mph 3.0 mph 89 % 0.00 in
Crab Meadow Weather
Compliments of Weather Underground - 3 mb

Script developed by  Jim McMurry - jmcmurry@mwt.net Adapted for the template by  Wim van der Kuil - Leuven-Template.eu

Recycling: If every American home replaced just one light bulb with an ENERGY STAR qualified bulb, we would save enough energy to light more than 3 million homes for a year, more than $600 million in annual energy costs, and prevent greenhouse gases equivalent to the emissions of more than 800,000 cars.